When you browse on this site, cookies collect data to enhance your experience and personalize the content and advertising you see.
Visit our Privacy Policy to learn more. By continuing to use the site, you agree to this use of cookies and data.

Hourly Weather Plonne

Today, 4 July, Saturday

Time Temperature Precipitation Wind Pressure Humidity
00:00 +15°C° 0 mm 1 mps 753 mmHg 90%
01:00 +15°C° 0 mm 1 mps 753 mmHg 90%
02:00 +15°C° 0 mm 1 mps 753 mmHg 90%
03:00 +14°C° 0 mm 2 mps 753 mmHg 91%
04:00 +14°C° 0 mm 2 mps 753 mmHg 91%
05:00 +16°C° 0 mm 3 mps 753 mmHg 86%
06:00 +18°C° 0 mm 3 mps 753 mmHg 80%
07:00 +19°C° 0 mm 4 mps 753 mmHg 75%
08:00 +20°C° 0 mm 4 mps 753 mmHg 70%
09:00 +22°C° 0 mm 4 mps 753 mmHg 65%
10:00 +23°C° 0 mm 4 mps 753 mmHg 61%
11:00 +25°C° 0 mm 5 mps 753 mmHg 59%
12:00 +25°C° 0 mm 5 mps 753 mmHg 58%
13:00 +26°C° 0 mm 5 mps 753 mmHg 56%
14:00 +26°C° 0.1 mm 5 mps 752 mmHg 57%
15:00 +26°C° 0.1 mm 5 mps 752 mmHg 59%
16:00 +26°C° 0.1 mm 5 mps 752 mmHg 60%
17:00 +25°C° 0 mm 5 mps 752 mmHg 64%
18:00 +23°C° 0 mm 4 mps 752 mmHg 68%
19:00 +22°C° 0 mm 3 mps 751 mmHg 73%
20:00 +21°C° 0 mm 3 mps 752 mmHg 73%
21:00 +20°C° 0 mm 2 mps 752 mmHg 74%
22:00 +19°C° 0 mm 2 mps 752 mmHg 74%
23:00 +18°C° 0 mm 2 mps 752 mmHg 74%

Tomorrow, 5 July, Sunday

Time Temperature Precipitation Wind Pressure Humidity
00:00 +18°C° 0 mm 2 mps 752 mmHg 74%
01:00 +18°C° 0 mm 2 mps 752 mmHg 74%
02:00 +18°C° 0 mm 3 mps 751 mmHg 74%
03:00 +18°C° 0 mm 3 mps 751 mmHg 75%
04:00 +18°C° 0 mm 4 mps 751 mmHg 76%
05:00 +19°C° 0 mm 4 mps 751 mmHg 76%
06:00 +19°C° 0 mm 4 mps 751 mmHg 76%
07:00 +20°C° 0 mm 5 mps 751 mmHg 76%
08:00 +21°C° 0 mm 5 mps 751 mmHg 74%
09:00 +22°C° 0 mm 6 mps 751 mmHg 71%
10:00 +23°C° 0 mm 6 mps 751 mmHg 69%
11:00 +23°C° 0 mm 6 mps 751 mmHg 69%
12:00 +23°C° 0 mm 6 mps 751 mmHg 69%
13:00 +24°C° 0 mm 6 mps 750 mmHg 69%
14:00 +24°C° 0.1 mm 6 mps 750 mmHg 70%
15:00 +24°C° 0.1 mm 6 mps 750 mmHg 70%
16:00 +25°C° 0.1 mm 5 mps 749 mmHg 71%
17:00 +23°C° 0.2 mm 5 mps 749 mmHg 76%
18:00 +22°C° 0.2 mm 4 mps 749 mmHg 80%
19:00 +22°C° 0.2 mm 4 mps 749 mmHg 85%
20:00 +21°C° 0.1 mm 4 mps 749 mmHg 87%
21:00 +20°C° 0.1 mm 4 mps 749 mmHg 88%
22:00 +20°C° 0.1 mm 4 mps 748 mmHg 90%
23:00 +20°C° 0.1 mm 4 mps 748 mmHg 91%

Day after tomorrow, 6 July, Monday

Time Temperature Precipitation Wind Pressure Humidity
00:00 +19°C° 0.1 mm 4 mps 748 mmHg 92%
01:00 +19°C° 0.1 mm 4 mps 748 mmHg 92%
02:00 +19°C° 0.1 mm 4 mps 747 mmHg 93%
03:00 +19°C° 0.1 mm 4 mps 747 mmHg 93%
04:00 +19°C° 0.1 mm 4 mps 747 mmHg 93%
05:00 +19°C° 0.1 mm 4 mps 747 mmHg 92%
06:00 +19°C° 0.1 mm 4 mps 747 mmHg 91%
07:00 +19°C° 0.1 mm 4 mps 747 mmHg 90%
08:00 +20°C° 0.3 mm 5 mps 747 mmHg 85%
09:00 +21°C° 0.3 mm 6 mps 747 mmHg 79%
10:00 +22°C° 0.3 mm 7 mps 747 mmHg 73%
11:00 +22°C° 0.1 mm 8 mps 747 mmHg 70%
12:00 +22°C° 0.1 mm 8 mps 747 mmHg 66%
13:00 +22°C° 0.1 mm 8 mps 747 mmHg 63%
14:00 +22°C° 0 mm 8 mps 747 mmHg 60%
15:00 +22°C° 0 mm 8 mps 747 mmHg 57%
16:00 +22°C° 0 mm 8 mps 747 mmHg 54%
17:00 +21°C° 0 mm 6 mps 747 mmHg 58%
18:00 +19°C° 0 mm 5 mps 748 mmHg 63%
19:00 +18°C° 0 mm 4 mps 748 mmHg 67%
20:00 +17°C° 0 mm 4 mps 749 mmHg 69%
21:00 +14°C° 0 mm 4 mps 749 mmHg 70%
22:00 +13°C° 0 mm 4 mps 749 mmHg 72%
23:00 +13°C° 0 mm 4 mps 750 mmHg 75%

7 July, Tuesday

Time Temperature Precipitation Wind Pressure Humidity
00:00 +12°C° 0 mm 4 mps 750 mmHg 77%
01:00 +12°C° 0 mm 4 mps 750 mmHg 80%
02:00 +12°C° 0 mm 4 mps 750 mmHg 82%
03:00 +11°C° 0 mm 4 mps 751 mmHg 84%
04:00 +11°C° 0 mm 4 mps 751 mmHg 87%
05:00 +12°C° 0 mm 4 mps 751 mmHg 82%
06:00 +13°C° 0 mm 5 mps 752 mmHg 77%
07:00 +14°C° 0 mm 6 mps 752 mmHg 72%
08:00 +15°C° 0.1 mm 6 mps 753 mmHg 68%
09:00 +15°C° 0.1 mm 6 mps 753 mmHg 64%
10:00 +16°C° 0.1 mm 7 mps 753 mmHg 60%
11:00 +16°C° 0 mm 6 mps 753 mmHg 59%
12:00 +16°C° 0 mm 6 mps 753 mmHg 57%
13:00 +17°C° 0 mm 6 mps 753 mmHg 56%
14:00 +17°C° 0 mm 6 mps 753 mmHg 56%
15:00 +17°C° 0 mm 5 mps 753 mmHg 57%
16:00 +17°C° 0 mm 5 mps 753 mmHg 58%
17:00 +17°C° 0.1 mm 4 mps 753 mmHg 63%
18:00 +17°C° 0.1 mm 4 mps 753 mmHg 68%
19:00 +16°C° 0.1 mm 3 mps 753 mmHg 74%
20:00 +14°C° 0 mm 3 mps 754 mmHg 76%
21:00 +13°C° 0 mm 3 mps 754 mmHg 78%
22:00 +12°C° 0 mm 3 mps 754 mmHg 81%
23:00 +11°C° 0 mm 3 mps 754 mmHg 82%

8 July, Wednesday

Time Temperature Precipitation Wind Pressure Humidity
00:00 +11°C° 0 mm 3 mps 754 mmHg 83%
01:00 +10°C° 0 mm 3 mps 753 mmHg 84%
02:00 +10°C° 0 mm 3 mps 753 mmHg 84%
03:00 +10°C° 0 mm 4 mps 753 mmHg 83%
04:00 +10°C° 0 mm 4 mps 753 mmHg 83%
05:00 +11°C° 0.2 mm 4 mps 753 mmHg 83%
06:00 +12°C° 0.2 mm 5 mps 754 mmHg 82%
07:00 +13°C° 0.2 mm 6 mps 754 mmHg 81%
08:00 +14°C° 0.1 mm 6 mps 754 mmHg 73%
09:00 +16°C° 0.1 mm 6 mps 754 mmHg 66%
10:00 +17°C° 0.1 mm 7 mps 754 mmHg 58%
11:00 +17°C° 0 mm 7 mps 754 mmHg 56%
12:00 +19°C° 0 mm 6 mps 754 mmHg 54%
13:00 +19°C° 0 mm 6 mps 754 mmHg 52%
14:00 +19°C° 0 mm 6 mps 755 mmHg 52%
15:00 +20°C° 0 mm 6 mps 755 mmHg 52%
16:00 +20°C° 0 mm 5 mps 755 mmHg 52%
17:00 +19°C° 0 mm 5 mps 755 mmHg 58%
18:00 +18°C° 0 mm 4 mps 755 mmHg 64%
19:00 +17°C° 0 mm 3 mps 755 mmHg 70%
20:00 +14°C° 0 mm 3 mps 755 mmHg 73%
21:00 +14°C° 0 mm 2 mps 755 mmHg 75%
22:00 +13°C° 0 mm 2 mps 755 mmHg 78%
23:00 +12°C° 0 mm 2 mps 755 mmHg 79%

9 July, Thursday

Time Temperature Precipitation Wind Pressure Humidity
00:00 +12°C° 0 mm 2 mps 755 mmHg 80%
01:00 +12°C° 0 mm 2 mps 755 mmHg 80%
02:00 +10°C° 0 mm 2 mps 755 mmHg 80%
03:00 +10°C° 0 mm 3 mps 755 mmHg 81%
04:00 +10°C° 0 mm 3 mps 754 mmHg 81%
05:00 +11°C° 0 mm 4 mps 754 mmHg 77%
06:00 +13°C° 0 mm 4 mps 754 mmHg 74%
07:00 +14°C° 0 mm 4 mps 753 mmHg 71%
08:00 +14°C° 0.1 mm 5 mps 753 mmHg 73%
09:00 +14°C° 0.1 mm 5 mps 753 mmHg 75%
10:00 +14°C° 0.1 mm 5 mps 752 mmHg 77%
11:00 +15°C° 0 mm 5 mps 752 mmHg 77%
12:00 +15°C° 0 mm 6 mps 752 mmHg 76%
13:00 +16°C° 0 mm 6 mps 752 mmHg 75%
14:00 +17°C° 0 mm 6 mps 751 mmHg 74%
15:00 +19°C° 0 mm 6 mps 751 mmHg 73%
16:00 +20°C° 0 mm 6 mps 751 mmHg 72%
17:00 +20°C° 0.1 mm 6 mps 751 mmHg 74%
18:00 +19°C° 0.1 mm 5 mps 751 mmHg 77%
19:00 +19°C° 0.1 mm 4 mps 751 mmHg 79%
20:00 +18°C° 0 mm 4 mps 751 mmHg 82%
21:00 +16°C° 0 mm 3 mps 751 mmHg 84%
22:00 +13°C° 0 mm 3 mps 751 mmHg 86%
23:00 +12°C° 0 mm 3 mps 752 mmHg 87%
Show more